CAPE
391 283 166 60 0 0 0 0 0 0 0 0 0 0 0 0 0 0 0 0 0 0
567 428 318 142 0 0 0 0 0 0 0 0 0 0 0 0 0 0 0 0 0 0
720 589 432 196 80 4 0 0 0 0 0 0 0 0 0 0 0 0 0 0 0 0
920 761 625 350 214 95 32 21 0 0 0 0 0 0 0 0 0 0 0 0 0 0
1117 893 869 610 447 223 183 83 69 0 0 0 0 0 0 0 0 0 0 0 0 0
925 940 781 628 370 109 56 32 0 0 0 0 0 0 0 0 0 0 0 0 0 0
658 658 631 413 226 89 35 22 0 0 0 0 0 0 0 0 0 0 0 0 0 0
478 471 426 396 299 216 157 51 32 13 5 0 0 0 0 0 0 0 0 0 0 0
395 472 323 472 579 489 467 326 202 163 140 100 43 8 0 0 0 0 0 0 0 0
316 183 186 287 398 426 351 319 258 168 133 106 97 109 84 30 6 11 11 10 0 0
166 122 95 86 150 179 177 168 132 153 142 177 212 170 111 40 20 10 16 7 0 0
0 0 0 0 16 69 43 34 58 71 89 79 123 128 71 35 8 4 5 0 0 1
0 0 0 0 0 0 9 34 79 66 85 50 49 34 54 23 36 15 3 0 1 1
0 0 0 0 0 0 0 18 25 19 3 65 86 84 13 9 7 4 0 0 0 1
CIN
-225 -224 -284 -358 -0 -0 -0 -0 -0 -0 -0 -0 -0 -0 -0 -0 -0 -0 -0 -0 -0 -0
-221 -205 -199 -256 -29 -0 -0 -0 -0 -0 -0 -0 -0 -0 -0 -0 -0 -0 -0 -0 -0 -0
-160 -186 -182 -214 -229 -122 -0 -0 -0 -0 -0 -0 -0 -0 -0 -0 -0 -0 -0 -0 -0 -0
-99 -113 -136 -168 -175 -196 -205 -195 -0 -0 -0 -0 -0 -0 -0 -0 -0 -0 -0 -0 -0 -0
-65 -67 -67 -102 -114 -128 -118 -138 -129 -0 -0 -0 -0 -0 -0 -0 -0 -0 -0 -0 -0 -0
-70 -65 -49 -68 -92 -127 -146 -162 -0 -0 -0 -0 -0 -0 -0 -0 -0 -0 -0 -0 -0 -0
-72 -62 -41 -67 -95 -117 -138 -147 -0 -0 -0 -0 -0 -0 -0 -0 -0 -0 -0 -0 -0 -0
-74 -60 -59 -54 -58 -75 -85 -107 -116 -126 -109 -0 -0 -0 -69 -0 -0 -0 -0 -0 -0 -0
-50 -53 -60 -38 -23 -30 -27 -37 -55 -64 -71 -65 -89 -81 -1 -0 -0 -0 -3 -3 -0 -0
-41 -55 -62 -46 -25 -21 -24 -25 -26 -44 -53 -63 -71 -59 -71 -76 -110 -131 -151 -134 -80 -0
-38 -34 -33 -36 -31 -34 -35 -32 -29 -26 -30 -35 -33 -44 -50 -50 -104 -93 -90 -106 -0 -0
-12 -0 -0 -0 -58 -36 -52 -57 -43 -41 -40 -50 -53 -39 -49 -72 -86 -108 -119 -8 -0 -0
-0 -0 -0 -0 -0 -13 -42 -30 -30 -28 -33 -43 -57 -66 -60 -68 -67 -94 -102 -0 -0 -0
-0 -38 -0 -0 -0 -0 -0 -43 -39 -62 -79 -45 -42 -39 -71 -99 -92 -53 -0 -0 -0 -0
Wind_Speed
6 9 11 12 12 12 12 11 9 6 6 6 8 8 8 9 8 8 9 8 10 12
6 8 11 13 13 14 13 14 12 10 9 8 8 9 8 9 9 9 8 10 11 13
8 9 11 13 14 14 15 13 12 11 10 10 9 8 8 10 10 10 10 10 12 12
12 12 12 12 13 14 15 14 13 12 11 10 10 9 9 9 9 11 11 11 12 13
14 16 14 15 15 15 16 16 16 15 14 13 11 10 10 10 10 12 12 13 12 14
16 15 14 15 17 17 18 19 19 17 16 15 13 12 11 12 13 13 13 14 13 14
18 16 16 18 18 18 18 19 20 20 19 18 17 15 13 13 14 14 15 16 16 16
17 18 20 21 21 20 19 19 19 20 21 19 19 18 17 16 17 16 18 18 18 16
22 21 21 23 24 22 18 17 19 20 21 21 21 18 18 18 20 20 20 19 19 18
22 22 24 24 23 25 26 24 22 22 22 22 21 18 17 17 19 20 19 20 19 19
24 26 27 27 26 26 26 27 27 26 25 24 21 19 19 21 22 23 24 22 20 18
27 30 31 31 30 30 30 30 29 29 31 30 26 24 23 25 26 27 27 22 19 17
24 28 33 33 33 32 32 32 31 32 31 30 29 31 29 26 27 28 26 24 19 15
26 30 26 32 33 38 35 35 34 35 36 31 29 30 28 28 29 28 24 23 18 15
Wind_Direction
28 15 10 8 4 3 4 3 357 347 338 335 342 348 354 354 357 357 357 1 351 351
21 11 4 359 357 354 355 355 351 345 335 328 329 331 337 341 343 346 349 349 349 345
9 360 353 353 350 349 348 349 347 345 339 332 327 329 330 331 331 334 333 338 339 343
351 349 351 349 348 346 344 341 339 335 336 329 323 320 324 323 327 323 323 327 324 329
339 341 341 340 340 341 338 336 331 331 330 328 324 317 316 316 315 316 316 319 319 321
335 335 335 339 338 334 334 333 334 328 325 325 323 317 312 311 312 313 311 312 310 314
329 330 331 333 334 333 334 333 334 333 329 324 321 317 311 308 308 308 310 308 306 310
330 330 328 327 328 329 329 330 332 331 330 328 322 319 315 309 310 306 307 305 304 303
329 332 332 329 324 327 329 330 330 327 326 325 323 321 315 311 308 306 305 304 306 302
330 330 331 333 329 323 322 326 329 329 326 324 322 323 322 319 316 313 309 308 309 309
329 326 326 326 325 325 328 327 326 326 325 323 322 321 321 320 320 317 313 311 307 307
332 328 327 325 323 325 322 323 324 322 320 318 321 319 318 315 317 319 316 314 311 310
336 335 329 326 325 325 324 321 320 320 322 321 319 314 314 316 315 318 320 315 313 309
326 325 322 314 319 320 323 319 317 317 319 319 315 313 313 312 313 314 320 316 314 315